sat.trackr.live / text

‹ back to catalog

STARLINK-30444

NORAD 57871 · 2023-144H

PAYLOAD ACTIVE UNKNOWN

§ Identity

Operator
Country
US
Launch date
2023-09-16
Launch site
AFETR
Launch vehicle
Mass (kg)
RCS (m²)

Purposes: comms

External: N2YO · Heavens-Above · Gunter

§ Orbital elements

Epoch: 2026-09-20T01:39:41.564448Z

Period
94.27 min
Inclination
43.0032°
Eccentricity
0.0001584
Mean motion
15.27547350 rev/d
Perigee alt
482.1 km
Apogee alt
484.2 km
Semi-major
6,861.3 km
B*
-2.2967e-4
RAAN
267.5880°
Arg perigee
263.6967°
Mean anomaly
96.3705°
Rev number
16,708

§ Raw data

STARLINK-304441 57871U 23144H   26263.06923107 -.00006570  00000+0 -22967-3 0  99972 57871  43.0032 267.5880 0001584 263.6967  96.3705 15.27547350167086

JSON: /api/v1/satellites/57871 · /tle

For live sub-satellite position, see the globe view (requires WebGL).

§ Visibility from observer

Set your observer location to see the next 7 days of passes ≥ 10°. The values pass through the URL so the page stays shareable.

No JS? Fill the form by hand. The geolocation button needs JavaScript.